| time (UTC) | temp F | wind direction | speed MPH | gust MPH | rain 1hr in | rain 24hr in | rain mn in | humidity % | barometer mb |
| 20260902204533 | 60 | 66 | 0.0 | 4.0 | 0.02 | 0.04 | 0.03 | 89 | 1009.5 |
| 20260902203055 | 60 | 36 | 2.0 | 6.0 | 0.02 | 0.03 | 0.02 | 87 | 1009.6 |
| 20260902194529 | 62 | 342 | 0.0 | 4.0 | 0.02 | 0.02 | 0.01 | 83 | 1009.5 |
| 20260902193031 | 63 | 282 | 0.0 | 2.0 | 0.01 | 0.01 | 0.00 | 78 | 1009.4 |
| 20260902191531 | 64 | 253 | 0.0 | 4.0 | 0.00 | 0.00 | 0.00 | 73 | 1009.3 |
| 20260902190109 | 64 | 241 | 1.0 | 5.0 | 0.00 | 0.00 | 0.00 | 70 | 1009.2 |
| 20260902184530 | 65 | 233 | 3.0 | 5.0 | 0.00 | 0.00 | 0.00 | 68 | 1009.1 |
| 20260902183031 | 65 | 243 | 1.0 | 7.0 | 0.00 | 0.00 | 0.00 | 69 | 1009.1 |
| 20260902181531 | 64 | 273 | 1.0 | 4.0 | 0.00 | 0.00 | 0.00 | 70 | 1009.1 |
| 20260902180030 | 64 | 278 | 2.0 | 6.0 | 0.00 | 0.00 | 0.00 | 70 | 1009.3 |
| 20260902174531 | 65 | 289 | 3.0 | 7.0 | 0.00 | 0.00 | 0.00 | 69 | 1009.2 |
| 20260902173107 | 65 | 302 | 4.0 | 8.0 | 0.00 | 0.00 | 0.00 | 70 | 1009.2 |
| 20260902170030 | 63 | 284 | 2.0 | 6.0 | 0.00 | 0.00 | 0.00 | 73 | 1009.5 |
| 20260902163029 | 60 | 344 | 1.0 | 4.0 | 0.00 | 0.00 | 0.00 | 79 | 1010.0 |
| 20260902161532 | 60 | 315 | 0.0 | 3.0 | 0.00 | 0.00 | 0.00 | 81 | 1010.4 |
| 20260902160106 | 59 | 357 | 0.0 | 4.0 | 0.00 | 0.00 | 0.00 | 81 | 1010.5 |
| 20260902154605 | 59 | 42 | 1.0 | 4.0 | 0.00 | 0.00 | 0.00 | 81 | 1010.7 |
| 20260902153109 | 58 | 42 | 3.0 | 6.0 | 0.00 | 0.00 | 0.00 | 84 | 1010.7 |
| 20260902151531 | 57 | 49 | 2.0 | 5.0 | 0.00 | 0.00 | 0.00 | 85 | 1010.8 |
| 20260902150030 | 57 | 43 | 2.0 | 6.0 | 0.00 | 0.00 | 0.00 | 85 | 1011.0 |
| 20260902140033 | 54 | 39 | 4.0 | 9.0 | 0.00 | 0.00 | 0.00 | 90 | 1011.3 |
| 20260902134529 | 52 | 51 | 4.0 | 8.0 | 0.00 | 0.00 | 0.00 | 92 | 1011.4 |
| 20260902133033 | 51 | 83 | 3.0 | 7.0 | 0.00 | 0.00 | 0.00 | 91 | 1011.5 |
| 20260902131533 | 51 | 99 | 4.0 | 6.0 | 0.00 | 0.00 | 0.00 | 91 | 1011.5 |
| 20260902130032 | 52 | 100 | 4.0 | 6.0 | 0.00 | 0.00 | 0.00 | 91 | 1011.5 |
| 20260902124533 | 52 | 114 | 4.0 | 7.0 | 0.00 | 0.00 | 0.00 | 91 | 1011.5 |
| 20260902121529 | 52 | 121 | 4.0 | 7.0 | 0.00 | 0.00 | 0.00 | 89 | 1011.6 |
| 20260902120106 | 53 | 123 | 4.0 | 9.0 | 0.00 | 0.00 | 0.00 | 88 | 1011.7 |
| 20260902114528 | 54 | 172 | 1.0 | 6.0 | 0.00 | 0.00 | 0.00 | 88 | 1011.7 |
| 20260902111529 | 53 | 111 | 3.0 | 6.0 | 0.00 | 0.00 | 0.00 | 91 | 1011.7 |
| 20260902110032 | 53 | 79 | 1.0 | 5.0 | 0.00 | 0.00 | 0.00 | 90 | 1011.7 |
| 20260902104645 | 54 | 107 | 3.0 | 5.0 | 0.00 | 0.00 | 0.00 | 90 | 1011.9 |
| 20260902103033 | 54 | 111 | 2.0 | 6.0 | 0.00 | 0.00 | 0.00 | 89 | 1012.0 |
| 20260902101530 | 54 | 105 | 3.0 | 7.0 | 0.00 | 0.00 | 0.00 | 89 | 1012.1 |
| 20260902100031 | 54 | 112 | 2.0 | 4.0 | 0.00 | 0.00 | 0.00 | 89 | 1012.1 |
| 20260902094531 | 54 | 88 | 2.0 | 5.0 | 0.00 | 0.00 | 0.00 | 88 | 1012.1 |
| 20260902091532 | 54 | 121 | 3.0 | 8.0 | 0.00 | 0.00 | 0.00 | 87 | 1012.4 |
| 20260902090031 | 54 | 128 | 2.0 | 6.0 | 0.00 | 0.00 | 0.00 | 87 | 1012.2 |
| 20260902084531 | 55 | 130 | 1.0 | 4.0 | 0.00 | 0.00 | 0.00 | 87 | 1012.3 |
| 20260902081529 | 56 | 136 | 1.0 | 3.0 | 0.00 | 0.00 | 0.00 | 83 | 1012.3 |
| 20260902080147 | 57 | 217 | 0.0 | 3.0 | 0.00 | 0.00 | 0.00 | 81 | 1012.4 |
| 20260902074528 | 58 | 286 | 2.0 | 7.0 | 0.00 | 0.00 | 0.00 | 80 | 1012.5 |
| 20260902071531 | 60 | 290 | 4.0 | 10.0 | 0.00 | 0.00 | 0.00 | 77 | 1012.6 |
| 20260902070030 | 60 | 295 | 4.0 | 10.0 | 0.00 | 0.00 | 0.00 | 76 | 1012.8 |
| 20260902064526 | 61 | 297 | 5.0 | 10.0 | 0.00 | 0.00 | 0.00 | 76 | 1012.9 |
| 20260902063030 | 61 | 294 | 6.0 | 13.0 | 0.00 | 0.00 | 0.00 | 75 | 1012.9 |
| 20260902060031 | 61 | 287 | 6.0 | 16.0 | 0.00 | 0.00 | 0.00 | 74 | 1013.0 |
| 20260902054530 | 61 | 299 | 6.0 | 13.0 | 0.00 | 0.00 | 0.00 | 74 | 1012.9 |
| 20260902053030 | 61 | 293 | 4.0 | 10.0 | 0.00 | 0.00 | 0.00 | 74 | 1013.0 |
| 20260902051605 | 61 | 318 | 4.0 | 9.0 | 0.00 | 0.00 | 0.00 | 75 | 1012.9 |
| 20260902050029 | 61 | 299 | 2.0 | 11.0 | 0.00 | 0.00 | 0.00 | 74 | 1012.7 |
| 20260902044531 | 61 | 280 | 1.0 | 7.0 | 0.00 | 0.00 | 0.00 | 74 | 1012.5 |
| 20260902043031 | 61 | 314 | 3.0 | 9.0 | 0.00 | 0.00 | 0.00 | 75 | 1012.4 |
| 20260902041531 | 61 | 293 | 2.0 | 10.0 | 0.00 | 0.00 | 0.00 | 74 | 1012.3 |
| 20260902034555 | 61 | 341 | 3.0 | 6.0 | 0.00 | 0.00 | 0.00 | 71 | 1012.0 |
| 20260902031532 | 64 | 281 | 4.0 | 9.0 | 0.00 | 0.00 | 0.00 | 64 | 1011.8 |
| 20260902030029 | 62 | 259 | 7.0 | 18.0 | 0.00 | 0.00 | 0.00 | 69 | 1011.9 |
| 20260902024531 | 62 | 268 | 4.0 | 12.0 | 0.00 | 0.00 | 0.00 | 71 | 1011.9 |
| 20260902021532 | 63 | 283 | 5.0 | 12.0 | 0.00 | 0.00 | 0.00 | 69 | 1011.6 |
| 20260902020106 | 64 | 299 | 5.0 | 13.0 | 0.00 | 0.00 | 0.00 | 67 | 1011.5 |
| 20260902014645 | 65 | 291 | 6.0 | 13.0 | 0.00 | 0.00 | 0.00 | 66 | 1011.4 |
| 20260902013033 | 66 | 277 | 4.0 | 12.0 | 0.00 | 0.00 | 0.00 | 63 | 1011.4 |
| 20260902011529 | 67 | 290 | 7.0 | 15.0 | 0.00 | 0.00 | 0.00 | 62 | 1011.2 |
| 20260902010031 | 67 | 296 | 7.0 | 16.0 | 0.00 | 0.00 | 0.00 | 62 | 1011.2 |
| 20260902004534 | 67 | 309 | 7.0 | 15.0 | 0.00 | 0.00 | 0.00 | 64 | 1011.1 |
| 20260902003032 | 66 | 317 | 9.0 | 20.0 | 0.00 | 0.00 | 0.00 | 65 | 1011.0 |
| 20260902001533 | 66 | 315 | 9.0 | 23.0 | 0.00 | 0.00 | 0.00 | 65 | 1011.0 |
| 20260902000032 | 66 | 320 | 9.0 | 18.0 | 0.00 | 0.00 | 0.00 | 65 | 1010.9 |
| 20260901234606 | 66 | 321 | 10.0 | 17.0 | 0.00 | 0.00 | 0.00 | 65 | 1011.0 |
| 20260901233147 | 66 | 327 | 10.0 | 21.0 | 0.00 | 0.00 | 0.00 | 64 | 1011.0 |
| 20260901230113 | 67 | 323 | 12.0 | 26.0 | 0.00 | 0.00 | 0.00 | 62 | 1010.9 |
| 20260901224532 | 69 | 310 | 14.0 | 28.0 | 0.00 | 0.00 | 0.00 | 60 | 1010.7 |
| 20260901223104 | 69 | 312 | 11.0 | 23.0 | 0.00 | 0.00 | 0.00 | 61 | 1010.6 |
| 20260901221530 | 68 | 313 | 12.0 | 26.0 | 0.00 | 0.00 | 0.00 | 62 | 1010.5 |
| 20260901220034 | 68 | 322 | 12.0 | 24.0 | 0.00 | 0.00 | 0.00 | 62 | 1010.4 |
| 20260901214532 | 68 | 331 | 9.0 | 19.0 | 0.00 | 0.00 | 0.00 | 63 | 1010.4 |
| 20260901213030 | 68 | 329 | 9.0 | 22.0 | 0.00 | 0.00 | 0.00 | 63 | 1010.6 |
| 20260901211528 | 68 | 323 | 10.0 | 20.0 | 0.00 | 0.00 | 0.00 | 62 | 1010.6 |